Location: Dodgeville
(42.9600°N, 90.1300°W)
Time: 16:20:28
(UTC-06:00)

Amateur Radio Satellites - All Passes

Search period start: 21 December 2014 15:50
Search period end: 22 December 2014 15:50
Location: Dodgeville, 42.9600°N, 90.1300°W

Satellite Date Start Highest point End Downlink Frequencies (MHz)
Time Altitude Azimuth
CUTE-I 21 Dec 15:55:38 15:58:25 15° 58° (ENE) 16:01:12 437.470
KKS-1 21 Dec 15:55:41 15:58:54 20° 296° (WNW) 16:02:07 437.445
M-CUBED/EXP-1 PRIME 21 Dec 15:56:05 15:58:00 13° 307° (NW) 15:59:52 437.505
ISS 21 Dec 16:52:30 16:54:52 18° 5° (N) 16:57:15 145.825
GONETS M04 21 Dec 16:54:46 17:03:33 80° 265° (W) 17:12:13
Cubesat XI-IV 21 Dec 16:59:42 17:04:50 51° 70° (ENE) 17:09:59 437.490
MOZHAYETS 4 21 Dec 17:11:12 17:15:51 83° 284° (WNW) 17:20:27
JAS-2 21 Dec 17:12:35 17:19:35 39° 263° (W) 17:26:03 435.910
MaSat-1 21 Dec 17:20:43 17:22:51 27° 60° (ENE) 17:25:04 437.345
AIST 1 21 Dec 17:21:44 17:25:07 22° 288° (WNW) 17:28:31
CUTE-I 21 Dec 17:32:26 17:37:46 85° 256° (WSW) 17:43:07 437.470
PRISM 21 Dec 17:32:55 17:36:14 23° 95° (E) 17:39:32 437.425
STRAND 1 21 Dec 17:37:33 17:39:43 13° 89° (E) 17:41:52 437.568
AO-7 21 Dec 17:43:54 17:45:49 11° 275° (W) 17:47:45 29.400- 29.500
RS-15 21 Dec 18:01:37 18:11:09 31° 26° (NNE) 18:20:57 29.354- 29.394
HO-68 21 Dec 18:08:21 18:12:44 18° 52° (NE) 18:17:07 435.675
DANDE 21 Dec 18:24:41 18:29:15 16° 61° (ENE) 18:34:08 436.750
ISS 21 Dec 18:29:00 18:32:07 38° 24° (NNE) 18:35:12 145.825
CUBESAT XI-V 21 Dec 18:37:19 18:41:52 59° 100° (E) 18:46:24 437.345
Cubesat XI-IV 21 Dec 18:41:12 18:45:12 21° 267° (W) 18:49:13 437.490
BRITE-PL 21 Dec 18:50:19 18:52:26 14° 63° (ENE) 18:54:34 437.365/2234.400
GONETS M04 21 Dec 18:54:15 18:58:49 16° 286° (WNW) 19:03:22
AAUSAT CUBESAT 2 21 Dec 19:02:59 19:04:23 12° 61° (ENE) 19:05:48 437.432
PRISM 21 Dec 19:08:08 19:11:47 30° 292° (WNW) 19:15:24 437.425
CUSAT 1 21 Dec 19:09:06 19:16:06 36° 70° (ENE) 19:23:43 437.405
GOMX 1 21 Dec 19:10:33 19:13:07 16° 64° (ENE) 19:15:43 467.674
STRAND 1 21 Dec 19:14:23 19:19:29 79° 286° (WNW) 19:24:34 437.568
CUTE-I 21 Dec 19:17:49 19:18:36 10° 273° (W) 19:19:22 437.470
CANX-2 21 Dec 19:18:12 19:21:49 28° 68° (ENE) 19:25:29 2200.000
DOVE 4 21 Dec 19:30:03 19:33:00 19° 65° (ENE) 19:36:00 437.250
COMPASS 1 21 Dec 19:36:36 19:40:14 29° 69° (ENE) 19:43:54 437.405
SEEDS 21 Dec 19:43:24 19:47:22 40° 71° (ENE) 19:51:23 437.485
CINEMA 3 21 Dec 19:46:51 19:49:39 18° 64° (ENE) 19:52:31 145.822/145.860
DELFI C3 21 Dec 19:47:30 19:49:44 14° 63° (ENE) 19:51:59 145.870
CUTE 1.7 + AOD 2 21 Dec 19:48:14 19:52:22 52° 73° (ENE) 19:56:34 437.475
HO-68 21 Dec 19:52:11 19:59:22 81° 72° (ENE) 20:06:34 435.675
UWE-3 21 Dec 19:58:57 20:00:53 13° 61° (ENE) 20:02:50 435.000/436.395/437.385
ISS 21 Dec 20:05:41 20:08:39 32° 222° (SW) 20:11:35 145.825
DANDE 21 Dec 20:06:06 20:13:49 70° 78° (ENE) 20:22:30 436.750
DX 1 21 Dec 20:09:08 20:12:39 25° 66° (ENE) 20:16:10 434.975-435.025
RS-15 21 Dec 20:14:20 20:25:38 78° 54° (NE) 20:37:26 29.354- 29.394
CUBESAT XI-V 21 Dec 20:16:05 20:18:50 16° 298° (WNW) 20:21:35 437.345
AISAT 21 Dec 20:19:11 20:20:35 11° 60° (ENE) 20:22:00 437.250
SO-50 21 Dec 20:19:17 20:23:32 41° 117° (ESE) 20:27:56 436.795
BEESAT 2 21 Dec 20:20:21 20:23:09 17° 40° (NE) 20:25:55 435.950
HUMSAT D 21 Dec 20:21:13 20:22:15 11° 60° (ENE) 20:23:17 437.325/437.525
BRITE-PL 21 Dec 20:26:29 20:30:33 52° 260° (W) 20:34:38 437.365/2234.400
Oscar 11 21 Dec 20:28:43 20:32:53 48° 72° (ENE) 20:37:05 145.826/435.025
AAUSAT CUBESAT 2 21 Dec 20:35:15 20:39:27 73° 258° (WSW) 20:43:42 437.432
UKube-1 21 Dec 20:38:05 20:42:14 47° 71° (ENE) 20:46:24 .
PCSat 21 Dec 20:46:57 20:50:25 17° 39° (NE) 20:53:52 145.827
GOMX 1 21 Dec 20:46:57 20:50:55 44° 261° (W) 20:54:56 467.674
CUSAT 1 21 Dec 20:51:50 20:59:27 58° 266° (W) 21:07:43 437.405
CANX-2 21 Dec 20:54:03 20:57:42 27° 265° (W) 21:01:23 2200.000
STRAND 1 21 Dec 20:56:28 20:57:49 11° 304° (WNW) 20:59:10 437.568
CUBEBUG 2 21 Dec 20:57:12 21:01:19 60° 74° (ENE) 21:05:34 437.445
ZACube-1 21 Dec 21:02:26 21:06:29 49° 72° (ENE) 21:10:38 437.345
DOVE 4 21 Dec 21:06:42 21:10:32 37° 263° (W) 21:14:28 437.250
VELOX 1 21 Dec 21:08:42 21:12:41 34° 69° (ENE) 21:16:41 145.980
COMPASS 1 21 Dec 21:12:25 21:15:56 25° 265° (W) 21:19:29 437.405
BEESAT 3 21 Dec 21:16:37 21:20:43 52° 53° (NE) 21:24:45 437.485
ESTCUBE 1 21 Dec 21:16:49 21:19:56 19° 64° (ENE) 21:23:04 437.505/2401.250
SEEDS 21 Dec 21:20:23 21:23:22 18° 268° (W) 21:26:22 437.485
DELFI C3 21 Dec 21:20:32 21:24:34 53° 260° (W) 21:28:37 145.870
50 SAT 21 Dec 21:21:36 21:25:18 37° 71° (ENE) 21:29:03 437.505
CINEMA 3 21 Dec 21:22:35 21:26:32 42° 262° (W) 21:30:37 145.822/145.860
CUTE 1.7 + AOD 2 21 Dec 21:26:19 21:28:37 14° 270° (W) 21:30:57 437.475
FUNcube-1 21 Dec 21:28:39 21:32:50 85° 257° (WSW) 21:37:08 145.935
AIST 2 21 Dec 21:30:43 21:34:40 33° 48° (NE) 21:38:32 435.215
UWE-3 21 Dec 21:32:43 21:36:52 63° 259° (W) 21:41:09 435.000/436.395/437.385
UNISAT 6 21 Dec 21:34:13 21:36:58 15° 90° (E) 21:39:43 437.425
HO-68 21 Dec 21:42:57 21:47:49 19° 270° (W) 21:52:43 435.675
POLYITAN 1 21 Dec 21:44:02 21:44:52 11° 89° (E) 21:45:42 437.675
DX 1 21 Dec 21:44:52 21:48:45 32° 263° (W) 21:52:39 434.975-435.025
NANOSAT C BR1 21 Dec 21:45:06 21:45:56 11° 89° (E) 21:46:46 145.865
DANDE 21 Dec 21:50:27 21:56:52 29° 273° (W) 22:03:51 436.750
AISAT 21 Dec 21:52:09 21:56:34 80° 257° (WSW) 22:01:00 437.250
HUMSAT D 21 Dec 21:53:17 21:57:24 76° 258° (WSW) 22:01:37 437.325/437.525
CUBEBUG 1 21 Dec 21:53:48 21:57:51 39° 70° (ENE) 22:01:53 437.445
BEESAT 2 21 Dec 21:57:40 22:01:51 68° 239° (WSW) 22:05:57 435.950
QB50P1 21 Dec 21:58:12 22:00:46 15° 92° (E) 22:03:18 145.935-145.965
SO-50 21 Dec 22:00:17 22:04:13 28° 316° (NW) 22:08:17 436.795
ANTELSAT 21 Dec 22:05:09 22:09:21 31° 96° (E) 22:13:33 437.575/2403.000
Oscar 11 21 Dec 22:06:37 22:09:19 16° 269° (W) 22:12:01 145.826/435.025
YUBILEINY 21 Dec 22:08:09 22:14:05 21° 78° (ENE) 22:19:59 435.215
UKube-1 21 Dec 22:15:55 22:18:38 16° 268° (W) 22:21:23 .
POPSAT HIP 1 21 Dec 22:26:06 22:29:53 30° 97° (E) 22:33:41 437.405
RS-15 21 Dec 22:27:41 22:37:01 31° 255° (WSW) 22:46:43 29.354- 29.394
PCSat 21 Dec 22:29:14 22:34:41 83° 60° (ENE) 22:40:06 145.827
CUBEBUG 2 21 Dec 22:36:53 22:38:29 12° 271° (W) 22:40:05 437.445
CUSAT 1 21 Dec 22:39:05 22:41:13 11° 283° (WNW) 22:43:23 437.405
TIGRISAT 21 Dec 22:39:30 22:44:12 68° 102° (ESE) 22:48:54 435.000
ZACube-1 21 Dec 22:40:51 22:43:11 15° 270° (W) 22:45:33 437.345
VELOX 1 21 Dec 22:45:50 22:49:20 23° 266° (W) 22:52:51 145.980
BUGSAT 1 21 Dec 22:45:56 22:49:46 39° 99° (E) 22:53:35 437.445
TISAT 1 21 Dec 22:48:58 22:52:51 38° 70° (ENE) 22:56:45 437.305
ESTCUBE 1 21 Dec 22:52:04 22:56:27 48° 261° (W) 23:00:51 437.505/2401.250
DUCHIFAT 1 21 Dec 22:53:07 22:57:20 61° 101° (E) 23:01:33 145.980
BEESAT 3 21 Dec 22:55:54 22:58:28 16° 250° (WSW) 23:01:02 437.485
SPROUT 21 Dec 22:56:29 23:00:31 42° 71° (ENE) 23:04:34 437.525
50 SAT 21 Dec 22:57:54 23:00:40 18° 267° (W) 23:03:27 437.505
BEESAT 21 Dec 23:03:15 23:04:09 11° 57° (ENE) 23:05:04 436.000
QB50P2 21 Dec 23:07:39 23:11:57 90° 280° (W) 23:16:14 145.880/145.840
UNISAT 6 21 Dec 23:09:28 23:14:07 59° 287° (WNW) 23:18:45 437.425
AIST 2 21 Dec 23:09:31 23:13:11 28° 246° (WSW) 23:16:47 435.215
O/OREOS (USA 219) 21 Dec 23:11:27 23:13:43 14° 99° (E) 23:15:58 437.305
POLYITAN 1 21 Dec 23:16:59 23:21:16 71° 285° (WNW) 23:25:33 437.675
NANOSAT C BR1 21 Dec 23:18:01 23:22:16 70° 285° (WNW) 23:26:31 145.865
CUBEBUG 1 21 Dec 23:31:09 23:34:21 20° 267° (W) 23:37:33 437.445
QB50P1 21 Dec 23:32:48 23:36:54 48° 288° (WNW) 23:41:01 145.935-145.965
M-CUBED/EXP-1 PRIME 21 Dec 23:35:59 23:39:01 17° 56° (NE) 23:42:03 437.505
ANTELSAT 21 Dec 23:42:00 23:46:04 29° 292° (WNW) 23:50:08 437.575/2403.000
YUBILEINY 22 Dec 00:00:59 00:09:45 83° 278° (W) 00:18:31 435.215
POPSAT HIP 1 22 Dec 00:02:12 00:05:40 25° 293° (WNW) 00:09:08 437.405
SWISSCUBE 22 Dec 00:11:53 00:16:30 51° 71° (ENE) 00:21:09 437.505
Oscar 19 22 Dec 00:12:46 00:14:48 12° 88° (E) 00:16:49 437.125/150
ITUPSAT 1 22 Dec 00:12:58 00:17:34 47° 71° (ENE) 00:22:11 437.325
PCSat 22 Dec 00:14:39 00:17:21 14° 257° (WSW) 00:20:02 145.827
TIGRISAT 22 Dec 00:17:48 00:20:23 15° 298° (WNW) 00:22:59 435.000
BUGSAT 1 22 Dec 00:22:13 00:24:59 18° 295° (WNW) 00:27:46 437.445
TISAT 1 22 Dec 00:25:49 00:28:49 19° 267° (W) 00:31:50 437.305
DUCHIFAT 1 22 Dec 00:30:36 00:32:42 14° 298° (WNW) 00:34:49 145.980
SPROUT 22 Dec 00:33:55 00:36:48 18° 268° (W) 00:39:41 437.525
BEESAT 22 Dec 00:36:24 00:41:12 82° 75° (ENE) 00:46:01 436.000
AUBIESAT-1 22 Dec 00:41:58 00:46:43 58° 68° (ENE) 00:51:31 437.475
O/OREOS (USA 219) 22 Dec 00:48:11 00:52:35 58° 296° (WNW) 00:57:00 437.305
M-CUBED/EXP-1 PRIME 22 Dec 01:08:34 01:13:25 74° 253° (WSW) 01:18:21 437.505
STARS 22 Dec 01:11:20 01:14:59 26° 67° (ENE) 01:18:38 437.465
KKS-1 22 Dec 01:17:30 01:21:41 44° 71° (ENE) 01:25:55 437.445
VERMONT LUNAR 22 Dec 01:30:16 01:31:47 12° 148° (SSE) 01:33:18 437.305
Oscar 19 22 Dec 01:49:32 01:54:46 83° 285° (WNW) 01:59:58 437.125/150
PHONESAT 2.4 22 Dec 01:51:16 01:52:41 12° 148° (SSE) 01:54:06 2401.200-2431.200
SWISSCUBE 22 Dec 01:51:22 01:54:39 18° 268° (W) 01:57:56 437.505
ITUPSAT 1 22 Dec 01:52:14 01:55:41 20° 267° (W) 01:59:10 437.325
YUBILEINY 22 Dec 02:02:22 02:08:00 18° 300° (WNW) 02:13:41 435.215
ITAMSAT 1 22 Dec 02:08:34 02:13:39 56° 101° (E) 02:18:43 435.822/435.867
Gurwin Techsat 1B 22 Dec 02:12:20 02:17:17 38° 97° (E) 02:22:12 435.225
BEESAT 22 Dec 02:18:22 02:19:37 11° 272° (W) 02:20:53 436.000
AUBIESAT-1 22 Dec 02:18:40 02:21:57 18° 264° (W) 02:25:16 437.475
HORYU 2 22 Dec 02:39:45 02:43:31 26° 95° (E) 02:47:16 437.375
MOZHAYETS 4 22 Dec 02:40:04 02:41:57 12° 60° (ENE) 02:43:49
STARS 22 Dec 02:47:30 02:51:21 30° 264° (W) 02:55:14 437.465
KKS-1 22 Dec 02:55:32 02:58:33 18° 268° (W) 03:01:35 437.445
VERMONT LUNAR 22 Dec 03:06:13 03:09:31 37° 164° (SSE) 03:12:49 437.305
SO-50 22 Dec 03:10:55 03:12:44 12° 30° (NNE) 03:14:34 436.795
AIST 1 22 Dec 03:26:55 03:31:12 79° 263° (W) 03:35:27
PHONESAT 2.4 22 Dec 03:27:23 03:30:45 37° 163° (SSE) 03:34:08 2401.200-2431.200
Oscar 19 22 Dec 03:31:20 03:33:16 12° 303° (WNW) 03:35:13 437.125/150
AO-7 22 Dec 03:43:48 03:51:41 43° 99° (E) 03:59:30 29.400- 29.500
ITAMSAT 1 22 Dec 03:49:01 03:52:44 20° 298° (WNW) 03:56:26 435.822/435.867
Gurwin Techsat 1B 22 Dec 03:52:34 03:57:06 29° 295° (WNW) 04:01:36 435.225
GONETS M04 22 Dec 04:02:17 04:09:02 26° 80° (E) 04:15:46
MOZHAYETS 4 22 Dec 04:13:51 04:18:30 81° 257° (WSW) 04:23:11
HORYU 2 22 Dec 04:16:10 04:20:12 32° 292° (WNW) 04:24:13 437.375
JAS-2 22 Dec 04:22:01 04:26:44 28° 93° (E) 04:31:10 435.910
PRISM 22 Dec 04:24:52 04:28:04 21° 66° (ENE) 04:31:16 437.425
VERMONT LUNAR 22 Dec 04:44:07 04:47:36 58° 181° (S) 04:51:05 437.305
SO-50 22 Dec 04:49:38 04:54:25 51° 51° (NE) 04:59:12 436.795
STRAND 1 22 Dec 04:53:40 04:57:31 22° 63° (ENE) 05:01:22 437.568
PHONESAT 2.4 22 Dec 05:05:38 05:09:12 59° 180° (S) 05:12:47 2401.200-2431.200
Cubesat XI-IV 22 Dec 05:17:02 05:20:42 19° 92° (E) 05:24:22 437.490
AO-7 22 Dec 05:36:38 05:44:29 46° 299° (WNW) 05:52:17 29.400- 29.500
CUBESAT XI-V 22 Dec 05:41:31 05:46:08 64° 74° (ENE) 05:50:45 437.345
CUTE-I 22 Dec 05:48:57 05:53:49 36° 97° (E) 05:58:40 437.470
GONETS M04 22 Dec 05:56:09 06:04:58 72° 280° (W) 06:13:50
PRISM 22 Dec 05:59:29 06:03:22 36° 262° (W) 06:07:17 437.425
JAS-2 22 Dec 06:06:51 06:12:00 37° 294° (WNW) 06:16:47 435.910
VERMONT LUNAR 22 Dec 06:22:25 06:25:40 35° 197° (SSW) 06:28:55 437.305
SO-50 22 Dec 06:30:53 06:34:39 22° 248° (WSW) 06:38:25 436.795
STRAND 1 22 Dec 06:31:25 06:36:21 50° 260° (W) 06:41:19 437.568
PHONESAT 2.4 22 Dec 06:44:17 06:47:39 37° 197° (SSW) 06:51:02 2401.200-2431.200
Cubesat XI-IV 22 Dec 06:55:57 07:01:10 58° 289° (WNW) 07:06:22 437.490
CUBESAT XI-V 22 Dec 07:21:38 07:23:59 14° 270° (W) 07:26:20 437.345
HO-68 22 Dec 07:21:44 07:24:51 13° 87° (E) 07:27:56 435.675
CUTE-I 22 Dec 07:29:10 07:33:47 31° 294° (WNW) 07:38:24 437.470
AO-7 22 Dec 07:32:45 07:35:09 12° 321° (NW) 07:37:34 29.400- 29.500
GONETS M04 22 Dec 07:58:44 08:03:36 16° 303° (WNW) 08:08:30
VERMONT LUNAR 22 Dec 08:02:24 08:03:21 11° 213° (SSW) 08:04:19 437.305
MaSat-1 22 Dec 08:11:17 08:13:31 52° 115° (ESE) 08:15:41 437.345
AAUSAT CUBESAT 2 22 Dec 08:19:05 08:21:54 17° 92° (E) 08:24:42 437.432
CUSAT 1 22 Dec 08:23:34 08:26:26 19° 82° (E) 08:29:54 437.405
PHONESAT 2.4 22 Dec 08:24:15 08:25:44 12° 212° (SSW) 08:27:13 2401.200-2431.200
BRITE-PL 22 Dec 08:29:04 08:33:37 42° 99° (E) 08:38:29 437.365/2234.400
UNISAT 6 22 Dec 08:35:01 08:37:34 15° 62° (ENE) 08:40:09 437.425
CANX-2 22 Dec 08:38:04 08:42:16 47° 99° (E) 08:46:25 2200.000
POLYITAN 1 22 Dec 08:39:48 08:40:03 10° 60° (ENE) 08:40:18 437.675
GOMX 1 22 Dec 08:46:38 08:51:17 46° 99° (E) 08:56:13 467.674
CUBEBUG 2 22 Dec 08:48:59 08:51:18 14° 90° (E) 08:53:38 437.445
QB50P1 22 Dec 08:52:59 08:55:13 14° 63° (ENE) 08:57:28 145.935-145.965
COMPASS 1 22 Dec 08:54:45 08:58:54 48° 99° (E) 09:02:59 437.405
DELFI C3 22 Dec 09:01:03 09:04:07 20° 93° (E) 09:07:09 145.870
SEEDS 22 Dec 09:02:43 09:07:01 71° 102° (ESE) 09:11:16 437.485
DOVE 4 22 Dec 09:03:42 09:08:25 51° 100° (E) 09:13:22 437.250
ANTELSAT 22 Dec 09:05:34 09:09:24 30° 68° (ENE) 09:13:20 437.575/2403.000
HO-68 22 Dec 09:06:28 09:13:39 78° 105° (ESE) 09:20:47 435.675
CUTE 1.7 + AOD 2 22 Dec 09:08:34 09:12:55 86° 284° (WNW) 09:17:13 437.475
CINEMA 3 22 Dec 09:15:56 09:20:28 41° 98° (E) 09:25:07 145.822/145.860
FUNcube-1 22 Dec 09:17:13 09:20:25 19° 92° (E) 09:23:37 145.935
O/OREOS (USA 219) 22 Dec 09:18:08 09:22:14 33° 59° (ENE) 09:26:19 437.305
POPSAT HIP 1 22 Dec 09:20:24 09:23:56 27° 68° (ENE) 09:27:29 437.405
UWE-3 22 Dec 09:22:08 09:25:58 25° 94° (E) 09:29:49 435.000/436.395/437.385
DANDE 22 Dec 09:22:52 09:26:29 68° 96° (E) 09:31:24 436.750
DX 1 22 Dec 09:32:02 09:36:07 38° 98° (E) 09:40:10 434.975-435.025
BUGSAT 1 22 Dec 09:37:24 09:41:01 32° 70° (ENE) 09:44:38 437.445
HUMSAT D 22 Dec 09:38:01 09:40:55 17° 92° (E) 09:43:49 437.325/437.525
TIGRISAT 22 Dec 09:39:18 09:43:37 65° 74° (ENE) 09:48:05 435.000
AISAT 22 Dec 09:43:25 09:46:31 18° 93° (E) 09:49:36 437.250
DUCHIFAT 1 22 Dec 09:46:49 09:50:52 51° 73° (ENE) 09:54:57 145.980
Oscar 11 22 Dec 09:51:10 09:55:34 87° 103° (ESE) 09:59:55 145.826/435.025
AAUSAT CUBESAT 2 22 Dec 09:53:45 09:57:46 42° 288° (WNW) 10:01:45 437.432
UKube-1 22 Dec 10:00:55 10:05:16 78° 103° (ESE) 10:09:35 .
QB50P2 22 Dec 10:01:35 10:05:48 77° 75° (ENE) 10:10:02 145.880/145.840
CUSAT 1 22 Dec 10:05:22 10:09:00 35° 291° (WNW) 10:13:47 437.405
BRITE-PL 22 Dec 10:08:13 10:11:55 23° 293° (WNW) 10:15:51 437.365/2234.400
UNISAT 6 22 Dec 10:09:32 10:13:51 58° 260° (W) 10:18:18 437.425
YUBILEINY 22 Dec 10:10:11 10:18:38 52° 75° (ENE) 10:27:02 435.215
POLYITAN 1 22 Dec 10:11:07 10:15:19 84° 257° (WSW) 10:19:34 437.675
NANOSAT C BR1 22 Dec 10:11:39 10:15:51 84° 257° (WSW) 10:20:06 145.865
CANX-2 22 Dec 10:15:01 10:17:50 17° 296° (WNW) 10:20:38 2200.000
CUBEBUG 2 22 Dec 10:23:46 10:28:24 67° 286° (WNW) 10:33:06 437.445
GOMX 1 22 Dec 10:25:30 10:29:09 22° 294° (WNW) 10:32:57 467.674
ZACube-1 22 Dec 10:26:15 10:30:49 84° 284° (WNW) 10:35:26 437.345
QB50P1 22 Dec 10:26:31 10:30:39 56° 259° (W) 10:34:49 145.935-145.965
COMPASS 1 22 Dec 10:31:32 10:34:14 17° 296° (WNW) 10:36:55 437.405
VELOX 1 22 Dec 10:34:38 10:39:02 62° 101° (ESE) 10:43:25 145.980
DELFI C3 22 Dec 10:35:43 10:39:28 34° 290° (WNW) 10:43:11 145.870
50 SAT 22 Dec 10:35:44 10:39:50 58° 101° (E) 10:43:56 437.505
RS-15 22 Dec 10:39:32 10:49:34 44° 109° (ESE) 10:59:35 29.354- 29.394
SEEDS 22 Dec 10:40:34 10:42:15 12° 299° (WNW) 10:43:55 437.485
DOVE 4 22 Dec 10:42:23 10:45:51 20° 295° (WNW) 10:49:27 437.250
ANTELSAT 22 Dec 10:42:27 10:46:11 27° 265° (W) 10:50:00 437.575/2403.000
ESTCUBE 1 22 Dec 10:44:13 10:48:17 32° 97° (E) 10:52:17 437.505/2401.250
FUNcube-1 22 Dec 10:52:37 10:56:57 46° 288° (WNW) 11:01:20 145.935
CINEMA 3 22 Dec 10:53:40 10:57:26 24° 293° (WNW) 11:01:18 145.822/145.860
HO-68 22 Dec 10:55:19 11:00:37 23° 304° (NW) 11:05:54 435.675
POPSAT HIP 1 22 Dec 10:56:11 10:59:46 27° 264° (W) 11:03:23 437.405
O/OREOS (USA 219) 22 Dec 10:57:45 11:01:30 26° 257° (WSW) 11:05:14 437.305
UWE-3 22 Dec 10:58:22 11:02:32 35° 290° (WNW) 11:06:45 435.000/436.395/437.385
DX 1 22 Dec 11:08:52 11:12:07 21° 295° (WNW) 11:15:21 434.975-435.025
DANDE 22 Dec 11:09:48 11:11:06 11° 305° (NW) 11:12:30 436.750
HUMSAT D 22 Dec 11:12:47 11:16:55 44° 288° (WNW) 11:21:03 437.325/437.525
BUGSAT 1 22 Dec 11:13:27 11:16:34 21° 266° (W) 11:19:42 437.445
CUBEBUG 1 22 Dec 11:17:55 11:22:15 71° 102° (ESE) 11:26:35 437.445
AISAT 22 Dec 11:19:07 11:23:20 43° 289° (WNW) 11:27:33 437.250
TIGRISAT 22 Dec 11:19:10 11:20:52 12° 271° (W) 11:22:36 435.000
DUCHIFAT 1 22 Dec 11:24:47 11:27:02 14° 269° (W) 11:29:18 145.980
Oscar 19 22 Dec 11:29:47 11:33:34 21° 62° (ENE) 11:37:22 437.125/150
Oscar 11 22 Dec 11:30:30 11:31:01 10° 300° (WNW) 11:31:32 145.826/435.025
UKube-1 22 Dec 11:39:24 11:40:48 11° 300° (WNW) 11:42:11 .
ITAMSAT 1 22 Dec 11:51:33 11:53:54 13° 58° (ENE) 11:56:15 435.822/435.867
BEESAT 2 22 Dec 11:54:48 11:57:40 19° 111° (ESE) 12:00:35 435.950
YUBILEINY 22 Dec 12:07:30 12:15:06 36° 275° (W) 12:22:42 435.215
TISAT 1 22 Dec 12:08:28 12:12:41 63° 101° (ESE) 12:16:52 437.305
50 SAT 22 Dec 12:12:29 12:14:35 14° 297° (WNW) 12:16:40 437.505
VELOX 1 22 Dec 12:12:45 12:15:07 14° 298° (WNW) 12:17:28 145.980
SWISSCUBE 22 Dec 12:13:42 12:15:28 12° 89° (E) 12:17:13 437.505
ITUPSAT 1 22 Dec 12:15:24 12:16:43 11° 88° (E) 12:18:01 437.325
SPROUT 22 Dec 12:18:08 12:22:27 76° 103° (ESE) 12:26:46 437.525
ESTCUBE 1 22 Dec 12:21:19 12:25:01 26° 293° (WNW) 12:28:42 437.505/2401.250
BEESAT 22 Dec 12:36:54 12:40:20 20° 93° (E) 12:43:46 436.000
ISS 22 Dec 12:46:39 12:49:50 46° 141° (SE) 12:53:02 145.825
BEESAT 3 22 Dec 12:49:39 12:53:44 78° 122° (ESE) 12:57:54 437.485
RS-15 22 Dec 12:50:51 13:01:34 58° 313° (NW) 13:12:26 29.354- 29.394
AO-7 22 Dec 12:55:56 13:00:26 16° 44° (NE) 13:04:56 29.400- 29.500
CUBEBUG 1 22 Dec 12:56:17 12:58:03 12° 299° (WNW) 12:59:49 437.445
Oscar 19 22 Dec 13:07:30 13:12:30 53° 260° (W) 13:17:35 437.125/150
AIST 2 22 Dec 13:07:59 13:12:04 50° 118° (ESE) 13:16:15 435.215
PCSat 22 Dec 13:11:35 13:16:55 64° 116° (ESE) 13:22:18 145.827
ITAMSAT 1 22 Dec 13:27:27 13:32:38 89° 255° (WSW) 13:37:51 435.822/435.867
BEESAT 2 22 Dec 13:31:37 13:35:35 45° 309° (NW) 13:39:38 435.950
Gurwin Techsat 1B 22 Dec 13:34:13 13:39:27 66° 73° (ENE) 13:44:44 435.225
HORYU 2 22 Dec 13:39:20 13:43:05 27° 67° (ENE) 13:46:53 437.375
TISAT 1 22 Dec 13:46:01 13:48:00 13° 298° (WNW) 13:49:59 437.305
SWISSCUBE 22 Dec 13:49:06 13:53:52 75° 286° (WNW) 13:58:36 437.505
ITUPSAT 1 22 Dec 13:50:24 13:55:11 80° 285° (WNW) 13:59:56 437.325
SPROUT 22 Dec 13:56:32 13:57:56 11° 299° (WNW) 13:59:19 437.525
AUBIESAT-1 22 Dec 13:59:25 14:03:23 37° 102° (ESE) 14:07:01 437.475
GONETS M04 22 Dec 14:11:38 14:15:09 13° 53° (NE) 14:18:38
BEESAT 22 Dec 14:13:51 14:18:25 46° 289° (WNW) 14:22:57 436.000
ISS 22 Dec 14:23:31 14:26:31 31° 339° (NNW) 14:29:30 145.825
M-CUBED/EXP-1 PRIME 22 Dec 14:26:23 14:30:45 85° 108° (ESE) 14:34:42 437.505
BEESAT 3 22 Dec 14:29:57 14:32:27 15° 321° (NW) 14:34:58 437.485
JAS-2 22 Dec 14:35:08 14:40:09 20° 59° (ENE) 14:44:51 435.910
STARS 22 Dec 14:36:04 14:40:21 45° 99° (E) 14:44:36 437.465
AO-7 22 Dec 14:43:26 14:51:35 63° 66° (ENE) 14:59:48 29.400- 29.500
KKS-1 22 Dec 14:44:07 14:48:37 83° 103° (ESE) 14:53:06 437.445
AIST 2 22 Dec 14:47:39 14:50:58 22° 317° (NW) 14:54:19 435.215
PCSat 22 Dec 14:56:31 15:00:47 23° 316° (NW) 15:05:06 145.827
RS-15 22 Dec 15:08:15 15:16:57 26° 344° (NNW) 15:25:51 29.354- 29.394
ITAMSAT 1 22 Dec 15:11:41 15:12:50 11° 272° (W) 15:13:59 435.822/435.867
HORYU 2 22 Dec 15:15:43 15:19:40 30° 264° (W) 15:23:39 437.375
Gurwin Techsat 1B 22 Dec 15:16:37 15:19:53 16° 270° (W) 15:23:10 435.225
ITUPSAT 1 22 Dec 15:31:44 15:32:15 10° 303° (WNW) 15:32:46 437.325
AUBIESAT-1 22 Dec 15:34:50 15:38:04 21° 301° (WNW) 15:41:07 437.475
